ASA7096 PANC-PAJN

Flight info

Callsign ASA7096
Flight time 1h 14m
Altitude 37000
Route NOEND CUSHI
Aircraft B737/M-SDE2E3FGHIRWXY/LB1

Departure

Time 2026-04-10 21:38
Airport Ted Stevens Anchorage International Airport (PANC)

Arrival

Time 2026-04-10 22:52
Airport Juneau International Airport (PAJN)
Time Latitude Longitude Altitude Speed Heading
2026-04-10 21:25 61.19765 -150.00510 143 ft 7 kts 165°
2026-04-10 21:31 61.19782 -150.00519 144 ft 4 kts 167°
2026-04-10 21:31 61.19808 -150.00530 145 ft 4 kts 172°
2026-04-10 21:31 61.19834 -150.00532 145 ft 4 kts 197°
2026-04-10 21:31 61.19848 -150.00513 145 ft 2 kts 272°
2026-04-10 21:32 61.19848 -150.00510 145 ft 5 kts 274°
2026-04-10 21:34 61.19849 -150.00512 145 ft 1 kts 274°
2026-04-10 21:34 61.19847 -150.00575 147 ft 9 kts 262°
2026-04-10 21:35 61.19819 -150.00794 150 ft 17 kts 255°
2026-04-10 21:35 61.19801 -150.00929 153 ft 2 kts 254°
2026-04-10 21:35 61.19805 -150.00978 154 ft 6 kts 296°
2026-04-10 21:35 61.19843 -150.01012 155 ft 6 kts 340°
2026-04-10 21:36 61.19890 -150.01045 157 ft 9 kts 344°
2026-04-10 21:36 61.19966 -150.01094 158 ft 12 kts 339°
2026-04-10 21:36 61.19988 -150.01266 156 ft 15 kts 255°
2026-04-10 21:36 61.19920 -150.01415 158 ft 21 kts 174°
2026-04-10 21:37 61.19657 -150.01277 153 ft 70 kts 165°
2026-04-10 21:37 61.18973 -150.00892 140 ft 131 kts 165°
2026-04-10 21:37 61.17927 -150.00337 182 ft 173 kts 165°
2026-04-10 21:37 61.16753 -149.99524 664 ft 184 kts 152°
2026-04-10 21:38 61.15743 -149.97753 1220 ft 198 kts 124°
2026-04-10 21:38 61.15264 -149.95120 2002 ft 194 kts 97°
2026-04-10 21:38 61.15217 -149.92122 2196 ft 228 kts 91°
2026-04-10 21:38 61.15205 -149.88552 2335 ft 258 kts 91°
2026-04-10 21:39 61.15196 -149.84842 3240 ft 257 kts 92°
2026-04-10 21:39 61.15183 -149.81125 4064 ft 260 kts 92°
2026-04-10 21:39 61.15166 -149.77402 4878 ft 264 kts 92°
2026-04-10 21:39 61.15142 -149.73578 5673 ft 269 kts 92°
2026-04-10 21:40 61.15111 -149.69655 6427 ft 276 kts 92°
2026-04-10 21:40 61.15075 -149.65627 7172 ft 282 kts 92°
2026-04-10 21:40 61.15038 -149.61524 7937 ft 288 kts 92°
2026-04-10 21:40 61.14996 -149.57343 8777 ft 293 kts 92°
2026-04-10 21:41 61.14943 -149.53069 9522 ft 300 kts 92°
2026-04-10 21:41 61.14892 -149.48722 10335 ft 305 kts 92°
2026-04-10 21:41 61.14839 -149.44168 10599 ft 329 kts 91°
2026-04-10 21:41 61.14780 -149.39273 10988 ft 348 kts 91°
2026-04-10 21:42 61.14717 -149.34207 11663 ft 356 kts 92°
2026-04-10 21:42 61.14650 -149.29051 12450 ft 360 kts 92°
2026-04-10 21:42 61.14579 -149.23843 13241 ft 365 kts 92°
2026-04-10 21:42 61.14506 -149.18548 14101 ft 367 kts 92°
2026-04-10 21:43 61.14430 -149.13258 14858 ft 370 kts 92°
2026-04-10 21:43 61.14351 -149.07893 15517 ft 377 kts 92°
2026-04-10 21:43 61.14267 -149.02400 16204 ft 385 kts 92°
2026-04-10 21:43 61.14181 -148.96893 16936 ft 390 kts 93°
2026-04-10 21:44 61.14090 -148.91235 17661 ft 396 kts 93°
2026-04-10 21:44 61.13997 -148.85501 18382 ft 401 kts 93°
2026-04-10 21:44 61.13900 -148.79680 19014 ft 406 kts 93°
2026-04-10 21:44 61.13798 -148.73817 19695 ft 409 kts 94°
2026-04-10 21:45 61.13694 -148.67915 20374 ft 413 kts 94°
2026-04-10 21:45 61.13588 -148.61953 21037 ft 416 kts 93°
2026-04-10 21:45 61.13477 -148.55933 21752 ft 419 kts 93°
2026-04-10 21:45 61.13355 -148.49876 22383 ft 423 kts 95°
2026-04-10 21:46 61.12943 -148.43831 22967 ft 426 kts 107°
2026-04-10 21:46 61.12094 -148.37942 23621 ft 428 kts 110°
2026-04-10 21:46 61.11188 -148.32073 24178 ft 430 kts 110°
2026-04-10 21:46 61.10264 -148.26162 24734 ft 432 kts 110°
2026-04-10 21:47 61.09350 -148.20304 25280 ft 435 kts 110°
2026-04-10 21:47 61.08423 -148.14329 25788 ft 438 kts 110°
2026-04-10 21:47 61.07494 -148.08315 26320 ft 440 kts 110°
2026-04-10 21:47 61.06562 -148.02273 26813 ft 442 kts 110°
2026-04-10 21:48 61.05623 -147.96184 27261 ft 445 kts 110°
2026-04-10 21:48 61.04682 -147.90075 27730 ft 448 kts 110°
2026-04-10 21:48 61.03735 -147.83927 28202 ft 451 kts 110°
2026-04-10 21:48 61.02783 -147.77739 28600 ft 454 kts 110°
2026-04-10 21:49 61.01816 -147.71534 29025 ft 456 kts 110°
2026-04-10 21:49 61.00837 -147.65286 29445 ft 459 kts 110°
2026-04-10 21:49 60.99850 -147.59012 29877 ft 461 kts 110°
2026-04-10 21:49 60.98855 -147.52701 30273 ft 464 kts 110°
2026-04-10 21:50 60.97852 -147.46360 30607 ft 467 kts 110°
2026-04-10 21:50 60.96843 -147.39986 30977 ft 468 kts 110°
2026-04-10 21:50 60.95827 -147.33606 31321 ft 470 kts 111°
2026-04-10 21:50 60.94789 -147.27213 31549 ft 473 kts 110°
2026-04-10 21:51 60.93758 -147.20848 31738 ft 477 kts 110°
2026-04-10 21:51 60.92717 -147.14358 32101 ft 477 kts 110°
2026-04-10 21:51 60.91681 -147.07896 32574 ft 474 kts 110°
2026-04-10 21:51 60.90649 -147.01479 33057 ft 471 kts 110°
2026-04-10 21:52 60.89617 -146.95104 33472 ft 470 kts 110°
2026-04-10 21:52 60.88580 -146.88737 33830 ft 470 kts 110°
2026-04-10 21:52 60.87539 -146.82376 34173 ft 470 kts 110°
2026-04-10 21:52 60.86497 -146.76036 34491 ft 469 kts 110°
2026-04-10 21:53 60.85451 -146.69695 34752 ft 469 kts 110°
2026-04-10 21:53 60.84400 -146.63348 34946 ft 471 kts 110°
2026-04-10 21:53 60.83342 -146.56970 35062 ft 475 kts 110°
2026-04-10 21:53 60.82270 -146.50540 35285 ft 476 kts 110°
2026-04-10 21:54 60.81200 -146.44147 35612 ft 473 kts 110°
2026-04-10 21:54 60.80130 -146.37780 35896 ft 473 kts 110°
2026-04-10 21:54 60.79059 -146.31421 36103 ft 474 kts 110°
2026-04-10 21:54 60.77977 -146.25028 36321 ft 474 kts 110°
2026-04-10 21:55 60.76898 -146.18665 36575 ft 473 kts 110°
2026-04-10 21:55 60.75828 -146.12380 36827 ft 473 kts 110°
2026-04-10 21:55 60.74743 -146.06027 37027 ft 473 kts 110°
2026-04-10 21:55 60.73653 -145.99670 37210 ft 475 kts 110°
2026-04-10 21:56 60.71446 -145.86864 37209 ft 478 kts 109°
2026-04-10 21:56 60.69234 -145.74115 37209 ft 475 kts 109°
2026-04-10 21:57 60.67022 -145.61446 37207 ft 473 kts 109°
2026-04-10 21:57 60.64807 -145.48852 37202 ft 471 kts 110°
2026-04-10 21:58 60.62961 -145.38420 37205 ft 471 kts 110°
2026-04-10 21:58 60.60733 -145.25895 37205 ft 471 kts 109°
2026-04-10 21:59 60.58487 -145.13366 37202 ft 472 kts 109°
2026-04-10 21:59 60.56224 -145.00825 37205 ft 473 kts 110°
2026-04-10 22:00 60.53940 -144.88246 37203 ft 475 kts 110°
2026-04-10 22:00 60.51638 -144.75653 37203 ft 476 kts 110°
2026-04-10 22:01 60.49317 -144.63027 37188 ft 478 kts 109°
2026-04-10 22:01 60.46973 -144.50371 37198 ft 480 kts 109°
2026-04-10 22:02 60.44609 -144.37695 37195 ft 481 kts 109°
2026-04-10 22:02 60.42249 -144.25118 37192 ft 482 kts 110°
2026-04-10 22:03 60.39855 -144.12447 37182 ft 482 kts 110°
2026-04-10 22:03 60.37450 -143.99792 37168 ft 482 kts 109°
2026-04-10 22:04 60.35035 -143.87169 37182 ft 482 kts 109°
2026-04-10 22:04 60.32608 -143.74562 37178 ft 482 kts 109°
2026-04-10 22:05 60.30172 -143.61992 37180 ft 481 kts 109°
2026-04-10 22:05 60.27724 -143.49439 37182 ft 480 kts 109°
2026-04-10 22:06 60.25271 -143.36941 37184 ft 480 kts 110°
2026-04-10 22:06 60.22806 -143.24458 37184 ft 479 kts 110°
2026-04-10 22:07 60.20350 -143.12097 37180 ft 479 kts 110°
2026-04-10 22:08 60.16620 -142.93470 37182 ft 479 kts 110°
2026-04-10 22:08 60.14118 -142.81068 37191 ft 479 kts 109°
2026-04-10 22:09 60.11604 -142.68682 37170 ft 480 kts 109°
2026-04-10 22:09 60.09069 -142.56277 37172 ft 480 kts 110°
2026-04-10 22:10 60.06524 -142.43899 37176 ft 481 kts 110°
2026-04-10 22:10 60.03965 -142.31526 37170 ft 481 kts 110°
2026-04-10 22:11 60.01395 -142.19189 37191 ft 481 kts 109°
2026-04-10 22:11 59.98808 -142.06834 37175 ft 482 kts 109°
2026-04-10 22:12 59.96215 -141.94504 37176 ft 481 kts 109°
2026-04-10 22:12 59.93608 -141.82195 37174 ft 481 kts 109°
2026-04-10 22:13 59.91011 -141.70006 37171 ft 481 kts 109°
2026-04-10 22:13 59.88386 -141.57762 37194 ft 480 kts 109°
2026-04-10 22:14 59.85760 -141.45583 37171 ft 478 kts 109°
2026-04-10 22:14 59.83124 -141.33432 37167 ft 477 kts 109°
2026-04-10 22:15 59.80490 -141.21358 37167 ft 475 kts 109°
2026-04-10 22:15 59.77852 -141.09333 37209 ft 474 kts 109°
2026-04-10 22:16 59.75209 -140.97356 37189 ft 474 kts 109°
2026-04-10 22:16 59.72559 -140.85414 37176 ft 473 kts 109°
2026-04-10 22:17 59.69900 -140.73500 37178 ft 472 kts 109°
2026-04-10 22:17 59.67239 -140.61643 37170 ft 471 kts 109°
2026-04-10 22:18 59.64565 -140.49796 37173 ft 471 kts 109°
2026-04-10 22:18 59.61900 -140.38053 37192 ft 472 kts 109°
2026-04-10 22:19 59.59199 -140.26217 37179 ft 473 kts 109°
2026-04-10 22:19 59.56486 -140.14395 37167 ft 473 kts 110°
2026-04-10 22:20 59.53757 -140.02566 37171 ft 473 kts 110°
2026-04-10 22:20 59.51020 -139.90772 37165 ft 474 kts 110°
2026-04-10 22:21 59.48269 -139.78981 37180 ft 474 kts 110°
2026-04-10 22:21 59.45504 -139.67196 37178 ft 474 kts 110°
2026-04-10 22:22 59.42732 -139.55447 37172 ft 474 kts 110°
2026-04-10 22:22 59.39950 -139.43718 37167 ft 473 kts 110°
2026-04-10 22:23 59.37179 -139.32097 37164 ft 473 kts 110°
2026-04-10 22:23 59.34382 -139.20431 37146 ft 473 kts 110°
2026-04-10 22:24 59.31575 -139.08782 37143 ft 473 kts 110°
2026-04-10 22:24 59.28756 -138.97151 37139 ft 473 kts 110°
2026-04-10 22:25 59.25926 -138.85534 37135 ft 473 kts 110°
2026-04-10 22:25 59.23084 -138.73928 37119 ft 473 kts 110°
2026-04-10 22:26 59.20227 -138.62324 37136 ft 474 kts 110°
2026-04-10 22:26 59.17360 -138.50739 37131 ft 474 kts 110°
2026-04-10 22:26 59.15938 -138.45017 37013 ft 477 kts 110°
2026-04-10 22:27 59.14480 -138.39152 36418 ft 482 kts 110°
2026-04-10 22:27 59.13015 -138.33289 35873 ft 481 kts 109°
2026-04-10 22:27 59.11546 -138.27429 35298 ft 479 kts 109°
2026-04-10 22:27 59.10085 -138.21624 34842 ft 475 kts 109°
2026-04-10 22:28 59.08634 -138.15873 34351 ft 473 kts 109°
2026-04-10 22:28 59.07189 -138.10161 33865 ft 469 kts 108°
2026-04-10 22:28 59.05757 -138.04506 33405 ft 463 kts 108°
2026-04-10 22:28 59.04333 -137.98902 32889 ft 459 kts 107°
2026-04-10 22:29 59.02925 -137.93375 32417 ft 455 kts 107°
2026-04-10 22:29 59.01528 -137.87897 31970 ft 451 kts 107°
2026-04-10 22:29 59.00140 -137.82466 31533 ft 447 kts 107°
2026-04-10 22:29 58.98779 -137.77153 31092 ft 444 kts 107°
2026-04-10 22:30 58.97408 -137.71818 30658 ft 440 kts 106°
2026-04-10 22:30 58.96058 -137.66571 30426 ft 431 kts 106°
2026-04-10 22:30 58.94728 -137.61432 30132 ft 423 kts 106°
2026-04-10 22:30 58.93416 -137.56365 29666 ft 419 kts 106°
2026-04-10 22:31 58.92108 -137.51331 29109 ft 419 kts 106°
2026-04-10 22:31 58.90803 -137.46295 28635 ft 417 kts 107°
2026-04-10 22:31 58.89504 -137.41318 28268 ft 412 kts 106°
2026-04-10 22:31 58.88218 -137.36403 27864 ft 407 kts 106°
2026-04-10 22:32 58.86943 -137.31533 27365 ft 406 kts 106°
2026-04-10 22:32 58.85673 -137.26676 26857 ft 405 kts 108°
2026-04-10 22:32 58.84346 -137.21882 26431 ft 401 kts 107°
2026-04-10 22:32 58.83059 -137.17128 26040 ft 397 kts 107°
2026-04-10 22:33 58.81822 -137.12408 25631 ft 392 kts 106°
2026-04-10 22:33 58.80612 -137.07710 25258 ft 390 kts 107°
2026-04-10 22:33 58.79450 -137.03003 24827 ft 386 kts 104°
2026-04-10 22:33 58.78280 -136.98335 24490 ft 386 kts 107°
2026-04-10 22:34 58.77056 -136.93766 24275 ft 380 kts 107°
2026-04-10 22:34 58.75853 -136.89326 23910 ft 378 kts 107°
2026-04-10 22:34 58.74633 -136.84851 23448 ft 376 kts 108°
2026-04-10 22:34 58.73422 -136.80404 22988 ft 374 kts 108°
2026-04-10 22:35 58.72227 -136.75995 22535 ft 370 kts 108°
2026-04-10 22:35 58.71043 -136.71611 22085 ft 367 kts 109°
2026-04-10 22:35 58.69873 -136.67255 21622 ft 365 kts 109°
2026-04-10 22:35 58.68714 -136.62949 21244 ft 361 kts 109°
2026-04-10 22:36 58.67565 -136.58694 20775 ft 359 kts 109°
2026-04-10 22:36 58.66418 -136.54442 20352 ft 356 kts 110°
2026-04-10 22:36 58.65282 -136.50252 19993 ft 352 kts 110°
2026-04-10 22:36 58.64154 -136.46103 19590 ft 349 kts 111°
2026-04-10 22:37 58.63032 -136.41979 19212 ft 347 kts 112°
2026-04-10 22:37 58.61918 -136.37893 18841 ft 344 kts 112°
2026-04-10 22:37 58.60814 -136.33848 18434 ft 342 kts 113°
2026-04-10 22:37 58.59715 -136.29831 18015 ft 339 kts 113°
2026-04-10 22:38 58.58619 -136.25836 17559 ft 337 kts 114°
2026-04-10 22:38 58.57528 -136.21869 17169 ft 334 kts 114°
2026-04-10 22:38 58.56449 -136.17952 16774 ft 331 kts 114°
2026-04-10 22:38 58.55394 -136.14123 16361 ft 329 kts 114°
2026-04-10 22:39 58.54329 -136.10264 15949 ft 326 kts 114°
2026-04-10 22:39 58.53272 -136.06439 15536 ft 324 kts 115°
2026-04-10 22:39 58.52219 -136.02638 15136 ft 322 kts 115°
2026-04-10 22:39 58.51176 -135.98874 14747 ft 319 kts 115°
2026-04-10 22:40 58.50138 -135.95140 14352 ft 317 kts 115°
2026-04-10 22:40 58.49105 -135.91426 13949 ft 316 kts 115°
2026-04-10 22:40 58.48077 -135.87735 13568 ft 313 kts 116°
2026-04-10 22:40 58.47061 -135.84086 13168 ft 310 kts 115°
2026-04-10 22:41 58.46050 -135.80458 12744 ft 308 kts 116°
2026-04-10 22:41 58.45043 -135.76856 12322 ft 307 kts 116°
2026-04-10 22:41 58.44042 -135.73284 11920 ft 304 kts 115°
2026-04-10 22:41 58.43042 -135.69722 11447 ft 305 kts 116°
2026-04-10 22:42 58.42047 -135.66205 11230 ft 296 kts 116°
2026-04-10 22:42 58.41090 -135.62809 11083 ft 286 kts 115°
2026-04-10 22:42 58.40156 -135.59483 10771 ft 283 kts 115°
2026-04-10 22:42 58.39227 -135.56185 10408 ft 282 kts 115°
2026-04-10 22:43 58.38298 -135.52901 10075 ft 281 kts 116°
2026-04-10 22:43 58.37371 -135.49633 9708 ft 279 kts 116°
2026-04-10 22:43 58.36758 -135.47489 9518 ft 276 kts 116°
2026-04-10 22:43 58.36138 -135.42901 9041 ft 267 kts 86°
2026-04-10 22:44 58.36148 -135.40572 8805 ft 265 kts 87°
2026-04-10 22:44 58.36172 -135.37069 8450 ft 264 kts 87°
2026-04-10 22:44 58.36185 -135.33587 8157 ft 261 kts 89°
2026-04-10 22:44 58.36184 -135.29041 7747 ft 257 kts 88°
2026-04-10 22:45 58.36182 -135.26746 7588 ft 254 kts 88°
2026-04-10 22:45 58.36177 -135.23433 7239 ft 254 kts 89°
2026-04-10 22:45 58.36169 -135.20077 6948 ft 252 kts 89°
2026-04-10 22:45 58.36158 -135.16794 6821 ft 242 kts 89°
2026-04-10 22:46 58.36149 -135.13625 6607 ft 237 kts 89°
2026-04-10 22:46 58.36138 -135.10539 6469 ft 229 kts 89°
2026-04-10 22:46 58.36127 -135.07547 6302 ft 222 kts 89°
2026-04-10 22:46 58.36115 -135.04667 6212 ft 212 kts 89°
2026-04-10 22:47 58.36085 -135.01910 6090 ft 204 kts 90°
2026-04-10 22:47 58.36046 -134.99295 6021 ft 190 kts 89°
2026-04-10 22:47 58.36022 -134.96894 5891 ft 178 kts 88°
2026-04-10 22:47 58.36007 -134.94609 5759 ft 165 kts 88°
2026-04-10 22:48 58.35997 -134.92452 5476 ft 162 kts 87°
2026-04-10 22:48 58.35988 -134.90312 5182 ft 161 kts 87°
2026-04-10 22:48 58.35980 -134.88206 4861 ft 158 kts 86°
2026-04-10 22:48 58.35973 -134.86100 4434 ft 159 kts 86°
2026-04-10 22:49 58.35965 -134.83991 4026 ft 159 kts 86°
2026-04-10 22:49 58.35962 -134.81870 3657 ft 162 kts 85°
2026-04-10 22:49 58.35961 -134.79619 2987 ft 173 kts 85°
2026-04-10 22:49 58.35949 -134.77322 2329 ft 174 kts 86°
2026-04-10 22:50 58.35937 -134.75052 1848 ft 165 kts 86°
2026-04-10 22:50 58.35927 -134.72959 1567 ft 150 kts 86°
2026-04-10 22:50 58.35920 -134.71087 1380 ft 139 kts 87°
2026-04-10 22:50 58.35914 -134.69262 1134 ft 135 kts 88°
2026-04-10 22:51 58.35927 -134.67552 1021 ft 124 kts 86°
2026-04-10 22:51 58.35950 -134.65852 861 ft 134 kts 84°
2026-04-10 22:51 58.36011 -134.64047 700 ft 139 kts 84°
2026-04-10 22:51 58.36041 -134.62218 483 ft 136 kts 88°
2026-04-10 22:52 58.35891 -134.60502 120 ft 130 kts 108°
2026-04-10 22:52 58.35659 -134.58786 41 ft 129 kts 106°
2026-04-10 22:52 58.35458 -134.57367 34 ft 84 kts 105°
2026-04-10 22:52 58.35353 -134.56610 34 ft 47 kts 104°
2026-04-10 22:53 58.35271 -134.56030 32 ft 44 kts 105°
2026-04-10 22:53 58.35196 -134.55492 31 ft 38 kts 105°
2026-04-10 22:53 58.35262 -134.55305 33 ft 20 kts 343°
2026-04-10 22:53 58.35316 -134.55530 32 ft 19 kts 285°
2026-04-10 22:54 58.35350 -134.55773 30 ft 19 kts 284°
2026-04-10 22:54 58.35383 -134.56008 33 ft 18 kts 285°
2026-04-10 22:54 58.35413 -134.56235 33 ft 18 kts 284°
2026-04-10 22:54 58.35446 -134.56470 33 ft 20 kts 285°
2026-04-10 22:55 58.35482 -134.56733 33 ft 21 kts 285°
2026-04-10 22:55 58.35519 -134.56999 33 ft 20 kts 285°
2026-04-10 22:55 58.35555 -134.57258 33 ft 20 kts 284°
2026-04-10 22:55 58.35590 -134.57509 33 ft 19 kts 285°
2026-04-10 22:56 58.35624 -134.57751 33 ft 19 kts 285°
2026-04-10 22:56 58.35657 -134.57985 31 ft 18 kts 285°
2026-04-10 22:56 58.35688 -134.58211 33 ft 17 kts 284°
2026-04-10 22:56 58.35718 -134.58426 32 ft 17 kts 285°
2026-04-10 22:57 58.35753 -134.58589 33 ft 13 kts 314°
2026-04-10 22:57 58.35808 -134.58674 33 ft 8 kts 306°
2026-04-10 22:57 58.35854 -134.58709 33 ft 7 kts 359°
2026-04-10 22:57 58.35884 -134.58709 31 ft 2 kts 359°
2026-04-10 22:58 58.35885 -134.58709 31 ft 0 kts 359°